Flag for Russia Weather past 2 weeks in Yuzhno-Sakhalinsk, Russia

Now
72 °F

Fog.


Feels Like: 65 °F
Forecast: 58 / 68 °F
Wind: 3 mph from Southeast

Location: Yuzhno Airport-Sakhalinsk

Current Time: Aug 4, 2015 at 6:32:46 PM

Latest Report: Aug 4, 2015 at 5:30 PM


Visibility: 2 mi

Pressure: 29.59 "Hg

Humidity: 100%

Dew point: 72 °F

Location of Yuzhno-SakhalinskLocation

Historic Weather in Yuzhno-Sakhalinsk — Graph

°F

Yuzhno-Sakhalinsk temperature yesterday

Maximum temperature yesterday: 81 °F (at 11:30 AM)
Minimum temperature yesterday: 52 °F (at 5:00 AM)
Average temperature yesterday: 69 °F

Past Weeks' High & Low Weather Summary

 TemperatureHumidityPressure
High82 °F (Jul 21, 3:00 PM)100% (Jul 21, 1:00 AM)29.89 "Hg (Jul 21, 1:00 AM)
Low48 °F (Aug 2, 5:00 AM)51% (Aug 1, 1:30 PM)29.59 "Hg (Jul 31, 4:00 PM)
Average68 °F90%29.75 "Hg
* Reported Jul 20 5:00 PM — Aug 4 5:30 PM, Yuzhno-Sakhalinsk, Weather by CustomWeather, © 2015

Note: Actual official high and low records may vary slightly from our data, if they occured in-between our weather recording intervals... More about our weather records

Advertising

Yuzhno-Sakhalinsk weather history for previous 24 hours

 ConditionsComfort  
Time TempWeatherWind HumidityBarometerVisibility
5:30 PM
Tue, Aug 4
72 °FFog.3 mph100%29.59 "Hg2 mi
5:00 PM70 °FFog.3 mph100%29.62 "Hg1 mi
4:30 PM70 °FSprinkles. Fog.3 mph100%29.62 "Hg2 mi
4:00 PM70 °FRain showers. Fog.6 mph100%29.62 "Hg1 mi
3:30 PM70 °FSprinkles. Fog.8 mph100%29.62 "Hg1 mi
3:00 PM70 °FRain showers. Fog.8 mph100%29.62 "Hg1 mi
2:30 PM70 °FRain showers. Fog.8 mph100%29.62 "Hg1 mi
2:00 PM70 °FRain showers. Fog.8 mph100%29.62 "Hg1 mi
1:30 PM70 °FRain showers. Fog.8 mph100%29.62 "Hg1 mi
1:00 PM70 °FSprinkles. Fog.10 mph100%29.65 "Hg1 mi
12:30 PM70 °FSprinkles. Fog.10 mph100%29.65 "Hg1 mi
12:00 PM68 °FSprinkles. Fog.6 mph100%29.65 "Hg2 mi
11:30 AM68 °FRain showers. Fog.6 mph100%29.65 "Hg1 mi
11:00 AM68 °FFog.8 mph100%29.68 "Hg3 mi
10:30 AM68 °FSprinkles. Fog.8 mph100%29.68 "Hg1 mi
10:00 AM68 °FSprinkles. Fog.8 mph100%29.68 "Hg1 mi
9:30 AM68 °FDrizzle. Fog.6 mph100%29.68 "Hg1 mi
9:00 AM68 °FMostly cloudy.6 mph100%29.71 "HgN/A
8:30 AM68 °FBroken clouds.6 mph100%29.71 "Hg5 mi
8:00 AM66 °FSprinkles. Partly sunny.6 mph100%29.71 "Hg5 mi
7:30 AM66 °FPartly sunny.3 mph100%29.71 "HgN/A
7:00 AM66 °FPartly sunny.3 mph100%29.74 "HgN/A
6:30 AM66 °FSprinkles. Broken clouds.3 mph100%29.74 "HgN/A
6:00 AM66 °FBroken clouds.3 mph100%29.74 "HgN/A
5:00 AM66 °FPartly cloudy.3 mph94%29.74 "HgN/A
4:00 AM64 °FPassing clouds.6 mph100%29.74 "HgN/A
3:00 AM64 °FClear.6 mph100%29.77 "HgN/A
2:00 AM64 °FClear.6 mph100%29.77 "HgN/A
1:00 AM63 °FClear.6 mph100%29.77 "HgN/A
12:00 AM64 °FClear.6 mph94%29.80 "HgN/A
11:00 PM
Mon, Aug 3
64 °FClear.6 mph94%29.80 "HgN/A
10:00 PM64 °FClear.6 mph94%29.80 "HgN/A
9:00 PM66 °FClear.6 mph88%29.80 "HgN/A
8:30 PM66 °FClear.8 mph88%29.80 "HgN/A
7:30 PM70 °FClear.3 mph83%29.77 "HgN/A
7:00 PM72 °FClear.6 mph83%29.77 "HgN/A
6:30 PM73 °FClear.6 mph78%29.77 "HgN/A
6:00 PM75 °FClear.3 mph74%29.77 "HgN/A
Weather by CustomWeather, © 2015

See weather overviewHow to use our weather pages